Pompano Beach, FL

6:59 PM EST on January 16, 2018 (GMT -0500)
Pompano Beach

Weather History for KPMP - April, 2013

Change the Weather History Date:

Tuesday, April 30, 2013

  Actual Average Record
Temperature  
Mean Temperature 76 °F -  
Max Temperature 84 °F 84 °F 100 °F (1971)
Min Temperature 69 °F 66 °F 56 °F (1980)
Cooling Degree Days 10    
Growing Degree Days 26 (Base 50)    
Moisture  
Dew Point 70 °F    
Average Humidity 83    
Maximum Humidity 100    
Minimum Humidity 63    
Precipitation  
Precipitation 1.92 in - - ()
Sea Level Pressure  
Sea Level Pressure 29.98 in    
Wind  
Wind Speed 9 mph (South)    
Max Wind Speed 23 mph    
Max Gust Speed 32 mph    
Visibility 8 miles    
Events Fog , Rain , Thunderstorm    
Averages and records for this station are not official NWS values.
T = Trace of Precipitation, MM = Missing Value Source: NWS Daily Summary

Daily Weather History Graph

Daily Weather History Graph

Search for Another Location

Airport or City:

Trip Planner

Search our weather history database for the weather conditions in past years. The results will help you decide how hot, cold, wet, or windy it might be!

Date:

Astronomy

Apr. 30, 2013 Rise Set
Actual Time 6:43 AM EDT 7:51 PM EDT
Civil Twilight 6:19 AM EDT 8:16 PM EDT
Nautical Twilight 5:50 AM EDT 8:45 PM EDT
Astronomical Twilight 5:20 AM EDT 9:14 PM EDT
Moon 12:07 AM EDT (4/30) 11:16 AM EDT (4/30)
Length of Visible Light 13h 56m
Length of Day
13h 08m
Waning Gibbous, 70% of the Moon is Illuminated
Apr 30
Waning Gibbous
May 2
Last Quarter
May 9
New
May 18
First Quarter
May 25
Full

Hourly Weather History & Observations

Time (EDT) Temp. Heat Index Dew Point Humidity Pressure Visibility Wind Dir Wind Speed Gust Speed Precip Events Conditions
12:53 AM 77.0 °F - 71.1 °F 82% 29.98 in 10.0 mi SSE 12.7 mph - N/A   Scattered Clouds
1:53 AM 77.0 °F - 70.0 °F 79% 29.96 in 10.0 mi South 8.1 mph - N/A   Clear
2:53 AM 77.0 °F - 70.0 °F 79% 29.94 in 10.0 mi SSE 9.2 mph - N/A   Clear
3:53 AM 77.0 °F - 70.0 °F 79% 29.95 in 10.0 mi South 6.9 mph - N/A   Clear
4:53 AM 77.0 °F - 69.1 °F 76% 29.94 in 10.0 mi South 8.1 mph - N/A   Mostly Cloudy
5:53 AM 77.0 °F - 69.1 °F 76% 29.94 in 10.0 mi SSE 6.9 mph - N/A   Clear
6:53 AM 75.9 °F - 70.0 °F 82% 29.97 in 10.0 mi South 5.8 mph - N/A   Clear
7:53 AM 77.0 °F - 70.0 °F 79% 29.99 in 10.0 mi SW 3.5 mph - N/A   Scattered Clouds
8:31 AM 78.8 °F - 69.8 °F 74% 29.99 in 10.0 mi SW 4.6 mph - N/A   Mostly Cloudy
8:53 AM 79.0 °F - 70.0 °F 74% 30.00 in 10.0 mi SW 3.5 mph - N/A   Mostly Cloudy
9:50 AM 78.8 °F - 69.8 °F 74% 30.00 in 10.0 mi South 11.5 mph 19.6 mph N/A   Scattered Clouds
9:53 AM 79.0 °F - 69.1 °F 72% 30.01 in 10.0 mi SSE 10.4 mph 19.6 mph N/A   Scattered Clouds
10:53 AM 82.9 °F 86.5 °F 69.1 °F 63% 30.00 in 10.0 mi SSE 12.7 mph - N/A   Scattered Clouds
11:53 AM 81.0 °F 84.4 °F 70.0 °F 69% 29.99 in 10.0 mi SE 12.7 mph - N/A   Mostly Cloudy
12:29 PM 78.8 °F - 71.6 °F 78% 29.99 in 4.0 mi North 10.4 mph - 0.07 in Rain , Thunderstorm Light Thunderstorms and Rain
12:35 PM 75.2 °F - 73.4 °F 94% 29.99 in 2.5 mi North 15.0 mph - 0.16 in Rain , Thunderstorm Heavy Thunderstorms and Rain
12:41 PM 73.4 °F - 71.6 °F 94% 30.01 in 0.8 mi North 4.6 mph - 0.44 in Rain , Thunderstorm Heavy Thunderstorms and Rain
12:47 PM 73.4 °F - 71.6 °F 94% 30.03 in 0.2 mi SW 18.4 mph 32.2 mph 0.89 in Fog , Rain , Thunderstorm Heavy Thunderstorms and Rain
12:48 PM 72.0 °F - 71.1 °F 97% 30.04 in 0.2 mi WSW 23.0 mph 32.2 mph 0.96 in Fog , Rain , Thunderstorm Heavy Thunderstorms and Rain
1:07 PM 69.8 °F - 68.0 °F 94% 30.00 in 0.8 mi West 5.8 mph - 0.85 in Rain Heavy Rain
1:14 PM 69.8 °F - 68.0 °F 94% 30.00 in 2.0 mi SW 3.5 mph - 0.87 in Rain Rain
1:21 PM 69.8 °F - 69.8 °F 100% 30.00 in 3.0 mi SSW 5.8 mph - 0.89 in Rain Rain
1:53 PM 72.0 °F - 71.1 °F 97% 29.98 in 5.0 mi WSW 6.9 mph - 0.95 in Rain Light Rain
2:53 PM 75.0 °F - 71.1 °F 87% 29.99 in 10.0 mi SSW 3.5 mph - 0.01 in   Mostly Cloudy
3:53 PM 75.9 °F - 69.1 °F 79% 29.98 in 10.0 mi SSE 10.4 mph - 0.00 in Rain Light Rain
4:53 PM 75.9 °F - 69.1 °F 79% 29.97 in 10.0 mi SE 8.1 mph - 0.00 in   Overcast
5:53 PM 75.9 °F - 72.0 °F 87% 29.97 in 10.0 mi East 5.8 mph - N/A   Clear
6:53 PM 77.0 °F - 70.0 °F 79% 29.97 in 10.0 mi SE 6.9 mph - N/A   Clear
7:53 PM 75.9 °F - 72.0 °F 87% 29.97 in 10.0 mi SSE 4.6 mph - N/A   Clear
8:53 PM 75.0 °F - 69.1 °F 82% 29.97 in 10.0 mi SSE 5.8 mph - N/A   Clear
9:53 PM 75.0 °F - 69.1 °F 82% 29.99 in 10.0 mi Calm Calm - N/A   Clear
10:53 PM 72.0 °F - 69.1 °F 91% 30.00 in 10.0 mi Calm Calm - N/A   Clear
11:53 PM 72.0 °F - 69.1 °F 91% 29.99 in 10.0 mi Calm Calm - N/A   Clear